User: anonymous   Login
Location: Unspecified
(0.0000°N, 0.0000°E)
Time: 12:49:52
(UTC+02:00)
Language:

ARIANE 5 R/B - Orbit

View from above orbital plane
View from above orbital plane
View from above satellite
View from above satellite

Ground track
Ground track

The orbit data is extracted from the following two-line orbital elements,

1 28379U 04027B   15241.51044234 -.00000344  00000-0 -14855-2 0  9996
2 28379 006.6501 192.3053 7282482 353.6606 222.4595 02.07924811 84458
Epoch (UTC): 29 August 2015 12:15:02
Eccentricity: 0.7282482
inclination: 6.6501°
perigee height: 668 km
apogee height: 38434 km
right ascension of ascending node: 192.3053°
argument of perigee: 353.6606°
revolutions per day: 2.07924811
mean anomaly at epoch: 222.4595°
orbit number at epoch: 8445

The dashed part of the orbit path shows where the satellite is in the earth's shadow,  

DLR